RYR6LW LATI-LIMC

Flight info

Callsign RYR6LW
Flight time 1h 43m
Altitude 38000
Route DIRES DCT PAPIZ DCT PES DCT TUFTE DCT LOMED DCT BEROK DCT MIVKI DCT GOLAS T648 MEBUR
Aircraft B738/M-SDE2E3FGHIRWXY/LB1

Departure

Time 2026-04-30 20:51
Airport Tirana International Airport Mother Teresa (LATI)

Arrival

Time 2026-04-30 22:34
Airport Milan Malpensa International Airport (LIMC)
Time Latitude Longitude Altitude Speed Heading
2026-04-30 20:50 41.57640 19.55672 12524 ft 366 kts 181°
2026-04-30 20:51 41.55085 19.56008 13281 ft 371 kts 172°
2026-04-30 20:51 41.49974 19.57265 14731 ft 378 kts 171°
2026-04-30 20:51 41.47356 19.57834 15453 ft 382 kts 173°
2026-04-30 20:52 41.44710 19.58333 16122 ft 387 kts 174°
2026-04-30 20:52 41.42018 19.58790 16791 ft 392 kts 175°
2026-04-30 20:52 41.36536 19.59662 18154 ft 400 kts 176°
2026-04-30 20:53 41.33754 19.60101 18772 ft 405 kts 176°
2026-04-30 20:53 41.30980 19.60343 19340 ft 404 kts 188°
2026-04-30 20:53 41.28293 19.59435 19989 ft 395 kts 209°
2026-04-30 20:54 41.24233 19.54877 21289 ft 381 kts 238°
2026-04-30 20:54 41.22718 19.51983 21921 ft 382 kts 240°
2026-04-30 20:54 41.21224 19.49031 22541 ft 384 kts 240°
2026-04-30 20:55 41.18222 19.43112 23715 ft 388 kts 240°
2026-04-30 20:55 41.16710 19.40177 24207 ft 390 kts 240°
2026-04-30 20:55 41.15170 19.37210 24712 ft 391 kts 240°
2026-04-30 20:56 41.12037 19.31205 25544 ft 397 kts 240°
2026-04-30 20:56 41.10460 19.28193 26012 ft 398 kts 241°
2026-04-30 20:56 41.07296 19.22153 26970 ft 399 kts 241°
2026-04-30 20:57 41.05696 19.19127 27407 ft 402 kts 239°
2026-04-30 20:57 41.03901 19.16240 27827 ft 408 kts 235°
2026-04-30 20:57 41.02005 19.13537 28242 ft 410 kts 234°
2026-04-30 20:58 40.98069 19.08040 29048 ft 412 kts 235°
2026-04-30 20:58 40.96126 19.05248 29446 ft 412 kts 236°
2026-04-30 20:58 40.94189 19.02437 29850 ft 412 kts 236°
2026-04-30 20:58 40.92590 18.99395 30317 ft 396 kts 251°
2026-04-30 20:59 40.91429 18.92534 31099 ft 379 kts 272°
2026-04-30 20:59 40.91628 18.89061 31364 ft 379 kts 282°
2026-04-30 21:00 40.93489 18.82546 32054 ft 379 kts 293°
2026-04-30 21:00 40.95739 18.76291 32709 ft 380 kts 294°
2026-04-30 21:01 40.98015 18.69964 33360 ft 380 kts 294°
2026-04-30 21:01 40.99143 18.66785 33651 ft 381 kts 293°
2026-04-30 21:01 41.01382 18.60413 34280 ft 381 kts 293°
2026-04-30 21:02 41.02495 18.57226 34507 ft 382 kts 293°
2026-04-30 21:02 41.03542 18.54216 34697 ft 384 kts 293°
2026-04-30 21:02 41.04645 18.51044 34939 ft 384 kts 293°
2026-04-30 21:02 41.05761 18.47827 35172 ft 385 kts 293°
2026-04-30 21:03 41.06882 18.44592 35388 ft 386 kts 293°
2026-04-30 21:03 41.08004 18.41352 35606 ft 387 kts 293°
2026-04-30 21:03 41.09127 18.38104 35816 ft 388 kts 293°
2026-04-30 21:03 41.10252 18.34848 36028 ft 388 kts 294°
2026-04-30 21:04 41.11378 18.31582 36254 ft 389 kts 294°
2026-04-30 21:04 41.12504 18.28315 36444 ft 390 kts 294°
2026-04-30 21:04 41.14751 18.21786 36864 ft 391 kts 294°
2026-04-30 21:05 41.15882 18.18492 37072 ft 392 kts 294°
2026-04-30 21:05 41.17012 18.15198 37258 ft 393 kts 294°
2026-04-30 21:05 41.18148 18.11882 37463 ft 394 kts 294°
2026-04-30 21:05 41.19284 18.08560 37655 ft 394 kts 294°
2026-04-30 21:06 41.20418 18.05243 37859 ft 395 kts 294°
2026-04-30 21:06 41.21550 18.01928 38060 ft 395 kts 294°
2026-04-30 21:06 41.22685 17.98600 38167 ft 396 kts 294°
2026-04-30 21:06 41.23438 17.96388 38157 ft 397 kts 294°
2026-04-30 21:07 41.25711 17.89703 38180 ft 396 kts 294°
2026-04-30 21:07 41.28337 17.81963 38178 ft 393 kts 294°
2026-04-30 21:08 41.30213 17.76419 38176 ft 392 kts 294°
2026-04-30 21:08 41.32445 17.69811 38181 ft 390 kts 294°
2026-04-30 21:09 41.34647 17.63272 38178 ft 390 kts 294°
2026-04-30 21:09 41.36863 17.56678 38178 ft 390 kts 294°
2026-04-30 21:10 41.39077 17.50077 38178 ft 390 kts 294°
2026-04-30 21:10 41.41294 17.43446 38178 ft 392 kts 294°
2026-04-30 21:11 41.43519 17.36779 38177 ft 393 kts 294°
2026-04-30 21:11 41.45729 17.30138 38175 ft 394 kts 294°
2026-04-30 21:12 41.47953 17.23441 38172 ft 396 kts 294°
2026-04-30 21:12 41.50185 17.16704 38175 ft 397 kts 294°
2026-04-30 21:13 41.52414 17.09957 38176 ft 397 kts 294°
2026-04-30 21:13 41.54632 17.03229 38178 ft 397 kts 294°
2026-04-30 21:14 41.56856 16.96466 38175 ft 397 kts 294°
2026-04-30 21:14 41.59054 16.89763 38181 ft 396 kts 294°
2026-04-30 21:15 41.61260 16.83022 38180 ft 395 kts 294°
2026-04-30 21:15 41.63460 16.76282 38181 ft 394 kts 294°
2026-04-30 21:16 41.65644 16.69573 38180 ft 393 kts 294°
2026-04-30 21:16 41.67811 16.62902 38193 ft 392 kts 294°
2026-04-30 21:17 41.69982 16.56199 38193 ft 392 kts 294°
2026-04-30 21:17 41.72145 16.49507 38195 ft 391 kts 293°
2026-04-30 21:18 41.74308 16.42799 38199 ft 391 kts 293°
2026-04-30 21:18 41.76448 16.36146 38201 ft 392 kts 293°
2026-04-30 21:19 41.78606 16.29418 38208 ft 392 kts 293°
2026-04-30 21:19 41.80763 16.22676 38211 ft 393 kts 293°
2026-04-30 21:20 41.82901 16.15979 38208 ft 393 kts 293°
2026-04-30 21:20 41.85056 16.09213 38216 ft 394 kts 293°
2026-04-30 21:21 41.87210 16.02428 38210 ft 395 kts 293°
2026-04-30 21:22 41.90426 15.92270 38216 ft 396 kts 293°
2026-04-30 21:23 41.94728 15.78621 38208 ft 397 kts 293°
2026-04-30 21:23 41.97941 15.68382 38214 ft 396 kts 293°
2026-04-30 21:24 42.00077 15.61554 38214 ft 395 kts 293°
2026-04-30 21:24 42.02193 15.54772 38212 ft 395 kts 293°
2026-04-30 21:25 42.05377 15.44533 38217 ft 394 kts 293°
2026-04-30 21:26 42.08551 15.34289 38222 ft 394 kts 293°
2026-04-30 21:27 42.11703 15.24075 38224 ft 394 kts 293°
2026-04-30 21:27 42.13803 15.17247 38229 ft 395 kts 293°
2026-04-30 21:28 42.16955 15.06966 38233 ft 396 kts 293°
2026-04-30 21:29 42.20091 14.96698 38236 ft 397 kts 293°
2026-04-30 21:30 42.25338 14.79427 38251 ft 398 kts 293°
2026-04-30 21:31 42.30562 14.62116 38256 ft 399 kts 293°
2026-04-30 21:32 42.33699 14.51666 38277 ft 399 kts 293°
2026-04-30 21:32 42.35771 14.44740 38279 ft 399 kts 292°
2026-04-30 21:33 42.38887 14.34290 38294 ft 399 kts 292°
2026-04-30 21:34 42.40956 14.27330 38290 ft 399 kts 293°
2026-04-30 21:34 42.44073 14.16929 38291 ft 398 kts 295°
2026-04-30 21:35 42.46420 14.10140 38294 ft 398 kts 296°
2026-04-30 21:35 42.48825 14.03378 38289 ft 398 kts 296°
2026-04-30 21:36 42.51203 13.96609 38294 ft 397 kts 296°
2026-04-30 21:37 42.55915 13.83035 38294 ft 397 kts 296°
2026-04-30 21:37 42.58248 13.76282 38315 ft 398 kts 296°
2026-04-30 21:38 42.60595 13.69471 38311 ft 398 kts 296°
2026-04-30 21:38 42.62941 13.62647 38316 ft 399 kts 296°
2026-04-30 21:39 42.65288 13.55806 38311 ft 399 kts 295°
2026-04-30 21:39 42.67621 13.48991 38311 ft 399 kts 296°
2026-04-30 21:40 42.70607 13.42658 38324 ft 398 kts 307°
2026-04-30 21:40 42.74014 13.36711 38314 ft 399 kts 307°
2026-04-30 21:41 42.77437 13.30724 38311 ft 400 kts 307°
2026-04-30 21:41 42.80844 13.24715 38307 ft 400 kts 307°
2026-04-30 21:42 42.84242 13.18689 38305 ft 401 kts 307°
2026-04-30 21:42 42.87635 13.12654 38298 ft 401 kts 307°
2026-04-30 21:43 42.90454 13.07630 38296 ft 401 kts 307°
2026-04-30 21:43 42.94400 13.00584 38285 ft 402 kts 307°
2026-04-30 21:44 42.97793 12.94510 38284 ft 402 kts 307°
2026-04-30 21:44 43.01184 12.88429 38270 ft 402 kts 307°
2026-04-30 21:45 43.04576 12.82333 38260 ft 402 kts 307°
2026-04-30 21:45 43.07939 12.76277 38262 ft 402 kts 307°
2026-04-30 21:46 43.11326 12.70167 38250 ft 402 kts 307°
2026-04-30 21:46 43.14707 12.64053 38238 ft 403 kts 307°
2026-04-30 21:47 43.18074 12.57951 38233 ft 403 kts 307°
2026-04-30 21:47 43.21449 12.51825 38247 ft 403 kts 307°
2026-04-30 21:48 43.24818 12.45695 38244 ft 403 kts 307°
2026-04-30 21:48 43.27645 12.40540 38259 ft 403 kts 307°
2026-04-30 21:49 43.31005 12.34405 38269 ft 404 kts 307°
2026-04-30 21:49 43.34381 12.28225 38282 ft 404 kts 307°
2026-04-30 21:50 43.37759 12.22029 38293 ft 405 kts 307°
2026-04-30 21:50 43.41142 12.15812 38298 ft 405 kts 307°
2026-04-30 21:51 43.44523 12.09584 38304 ft 406 kts 307°
2026-04-30 21:51 43.47886 12.03378 38300 ft 407 kts 307°
2026-04-30 21:52 43.51266 11.97126 38306 ft 407 kts 308°
2026-04-30 21:52 43.54654 11.90847 38306 ft 408 kts 308°
2026-04-30 21:53 43.58034 11.84567 38304 ft 408 kts 308°
2026-04-30 21:53 43.61412 11.78278 38306 ft 408 kts 308°
2026-04-30 21:54 43.64772 11.72010 38303 ft 408 kts 307°
2026-04-30 21:54 43.68154 11.65688 38302 ft 408 kts 308°
2026-04-30 21:55 43.71503 11.59412 38289 ft 408 kts 308°
2026-04-30 21:55 43.74869 11.53092 38291 ft 408 kts 308°
2026-04-30 21:56 43.78239 11.46751 38275 ft 408 kts 308°
2026-04-30 21:56 43.81597 11.40418 38274 ft 407 kts 308°
2026-04-30 21:57 43.84923 11.34133 38266 ft 407 kts 308°
2026-04-30 21:57 43.88279 11.27776 37815 ft 412 kts 308°
2026-04-30 21:58 43.89956 11.24594 37480 ft 405 kts 308°
2026-04-30 21:58 43.91611 11.21449 37070 ft 401 kts 308°
2026-04-30 21:58 43.93246 11.18340 36668 ft 397 kts 308°
2026-04-30 21:58 43.94867 11.15254 36289 ft 393 kts 308°
2026-04-30 21:59 43.96473 11.12195 35884 ft 390 kts 308°
2026-04-30 21:59 43.98043 11.09201 35500 ft 386 kts 309°
2026-04-30 21:59 43.99618 11.06195 35106 ft 383 kts 309°
2026-04-30 22:00 44.02541 11.00055 34328 ft 381 kts 300°
2026-04-30 22:00 44.04330 10.93088 33422 ft 381 kts 291°
2026-04-30 22:00 44.05069 10.89569 33040 ft 377 kts 291°
2026-04-30 22:01 44.05798 10.86087 32647 ft 374 kts 291°
2026-04-30 22:01 44.06525 10.82641 32285 ft 369 kts 291°
2026-04-30 22:01 44.07250 10.79227 31917 ft 366 kts 291°
2026-04-30 22:01 44.07970 10.75849 31546 ft 363 kts 291°
2026-04-30 22:02 44.08687 10.72494 31179 ft 360 kts 291°
2026-04-30 22:02 44.09398 10.69168 30834 ft 357 kts 291°
2026-04-30 22:02 44.10167 10.65568 30446 ft 354 kts 291°
2026-04-30 22:02 44.10801 10.62594 30082 ft 351 kts 291°
2026-04-30 22:03 44.11489 10.59359 29710 ft 346 kts 291°
2026-04-30 22:03 44.12168 10.56162 29356 ft 341 kts 291°
2026-04-30 22:03 44.12838 10.53008 28996 ft 337 kts 291°
2026-04-30 22:03 44.13497 10.49899 28621 ft 334 kts 291°
2026-04-30 22:04 44.14142 10.46849 28279 ft 331 kts 291°
2026-04-30 22:04 44.14789 10.43793 27941 ft 327 kts 291°
2026-04-30 22:04 44.16063 10.37753 27215 ft 322 kts 291°
2026-04-30 22:05 44.16689 10.34773 26852 ft 320 kts 291°
2026-04-30 22:05 44.17307 10.31805 26492 ft 318 kts 291°
2026-04-30 22:05 44.17918 10.28855 26147 ft 316 kts 291°
2026-04-30 22:05 44.18525 10.25920 25793 ft 315 kts 291°
2026-04-30 22:06 44.19129 10.22996 25453 ft 314 kts 291°
2026-04-30 22:06 44.20339 10.17135 24785 ft 316 kts 291°
2026-04-30 22:06 44.20955 10.14155 24467 ft 325 kts 291°
2026-04-30 22:07 44.21586 10.11090 24112 ft 330 kts 291°
2026-04-30 22:07 44.22290 10.08043 23709 ft 327 kts 297°
2026-04-30 22:07 44.23312 10.05239 23150 ft 325 kts 307°
2026-04-30 22:07 44.24589 10.02702 22772 ft 321 kts 309°
2026-04-30 22:08 44.25901 10.00174 22381 ft 319 kts 310°
2026-04-30 22:08 44.27202 9.97671 22023 ft 317 kts 310°
2026-04-30 22:08 44.28486 9.95191 21686 ft 314 kts 309°
2026-04-30 22:08 44.29749 9.92741 21353 ft 312 kts 309°
2026-04-30 22:09 44.31008 9.90289 21020 ft 310 kts 309°
2026-04-30 22:09 44.32262 9.87840 20686 ft 309 kts 309°
2026-04-30 22:09 44.33506 9.85407 20366 ft 307 kts 309°
2026-04-30 22:09 44.34743 9.82982 20041 ft 305 kts 310°
2026-04-30 22:10 44.35971 9.80574 19714 ft 303 kts 309°
2026-04-30 22:10 44.37195 9.78168 19398 ft 302 kts 309°
2026-04-30 22:10 44.38414 9.75772 19072 ft 301 kts 309°
2026-04-30 22:10 44.39622 9.73396 18769 ft 299 kts 309°
2026-04-30 22:11 44.42037 9.68642 18059 ft 299 kts 309°
2026-04-30 22:11 44.43226 9.66296 17723 ft 299 kts 309°
2026-04-30 22:11 44.44424 9.63931 17384 ft 298 kts 309°
2026-04-30 22:12 44.45633 9.61591 17050 ft 296 kts 312°
2026-04-30 22:12 44.47004 9.59413 16535 ft 300 kts 316°
2026-04-30 22:12 44.48455 9.57323 16164 ft 299 kts 317°
2026-04-30 22:12 44.49913 9.55258 15845 ft 297 kts 317°
2026-04-30 22:13 44.51364 9.53194 15516 ft 296 kts 317°
2026-04-30 22:13 44.52806 9.51130 15185 ft 296 kts 317°
2026-04-30 22:13 44.54243 9.49060 14871 ft 295 kts 317°
2026-04-30 22:13 44.55667 9.46998 14555 ft 294 kts 316°
2026-04-30 22:14 44.57089 9.44932 14237 ft 294 kts 316°
2026-04-30 22:14 44.58510 9.42862 13901 ft 293 kts 316°
2026-04-30 22:14 44.59921 9.40803 13549 ft 293 kts 316°
2026-04-30 22:14 44.61315 9.38768 13214 ft 292 kts 316°
2026-04-30 22:15 44.62719 9.36713 12889 ft 290 kts 316°
2026-04-30 22:15 44.64115 9.34669 12563 ft 289 kts 316°
2026-04-30 22:15 44.65500 9.32640 12251 ft 287 kts 316°
2026-04-30 22:15 44.66873 9.30625 11924 ft 285 kts 316°
2026-04-30 22:16 44.68261 9.28588 11391 ft 290 kts 316°
2026-04-30 22:16 44.69653 9.26545 11010 ft 288 kts 316°
2026-04-30 22:17 44.73742 9.20528 10124 ft 279 kts 316°
2026-04-30 22:17 44.75050 9.18604 9903 ft 274 kts 316°
2026-04-30 22:17 44.77918 9.15068 9229 ft 274 kts 327°
2026-04-30 22:18 44.79479 9.13547 8919 ft 272 kts 327°
2026-04-30 22:18 44.82595 9.10534 8328 ft 271 kts 327°
2026-04-30 22:19 44.85676 9.07503 7758 ft 270 kts 327°
2026-04-30 22:19 44.87207 9.05982 7470 ft 269 kts 326°
2026-04-30 22:19 44.90243 9.02950 6906 ft 268 kts 326°
2026-04-30 22:20 44.91767 9.01425 6598 ft 268 kts 326°
2026-04-30 22:20 44.94794 8.98384 6005 ft 265 kts 326°
2026-04-30 22:20 44.96296 8.96874 5711 ft 264 kts 326°
2026-04-30 22:21 44.97787 8.95373 5456 ft 261 kts 326°
2026-04-30 22:21 44.99225 8.93925 5345 ft 253 kts 326°
2026-04-30 22:21 45.00626 8.92512 5217 ft 242 kts 326°
2026-04-30 22:21 45.01967 8.91160 5106 ft 231 kts 326°
2026-04-30 22:22 45.03262 8.89854 4997 ft 220 kts 327°
2026-04-30 22:22 45.04515 8.88802 4906 ft 207 kts 347°
2026-04-30 22:22 45.05995 8.88410 4944 ft 211 kts 352°
2026-04-30 22:22 45.07409 8.88037 4903 ft 222 kts 351°
2026-04-30 22:23 45.08937 8.87623 4842 ft 224 kts 351°
2026-04-30 22:23 45.10473 8.87206 4784 ft 224 kts 351°
2026-04-30 22:23 45.11996 8.86791 4728 ft 222 kts 351°
2026-04-30 22:23 45.13509 8.86379 4681 ft 221 kts 351°
2026-04-30 22:24 45.15025 8.85967 4656 ft 222 kts 352°
2026-04-30 22:24 45.16544 8.85555 4595 ft 223 kts 351°
2026-04-30 22:24 45.18069 8.85140 4553 ft 224 kts 351°
2026-04-30 22:24 45.19603 8.84723 4502 ft 225 kts 351°
2026-04-30 22:25 45.21137 8.84306 4445 ft 224 kts 351°
2026-04-30 22:25 45.22656 8.83892 4403 ft 221 kts 352°
2026-04-30 22:25 45.24143 8.83497 4413 ft 220 kts 355°
2026-04-30 22:25 45.25673 8.83312 4383 ft 220 kts 358°
2026-04-30 22:26 45.26192 8.83254 4369 ft 221 kts 357°
2026-04-30 22:26 45.27926 8.82955 4315 ft 220 kts 354°
2026-04-30 22:27 45.29410 8.82603 4256 ft 213 kts 352°
2026-04-30 22:27 45.30866 8.82221 4222 ft 213 kts 353°
2026-04-30 22:27 45.33788 8.81424 4148 ft 217 kts 352°
2026-04-30 22:28 45.36786 8.80595 4060 ft 221 kts 352°
2026-04-30 22:28 45.38293 8.80178 3964 ft 216 kts 352°
2026-04-30 22:29 45.42447 8.79030 3601 ft 197 kts 352°
2026-04-30 22:29 45.43349 8.78782 3539 ft 199 kts 353°
2026-04-30 22:30 45.48862 8.77260 3072 ft 200 kts 353°
2026-04-30 22:31 45.52587 8.76227 2554 ft 162 kts 354°
2026-04-30 22:32 45.55705 8.75371 1924 ft 152 kts 353°
2026-04-30 22:32 45.57760 8.74808 1500 ft 148 kts 351°
2026-04-30 22:33 45.60705 8.73988 941 ft 141 kts 350°
2026-04-30 22:33 45.62558 8.73484 738 ft 113 kts 346°
2026-04-30 22:34 45.63281 8.73025 735 ft 20 kts 304°
2026-04-30 22:35 45.63408 8.72731 735 ft 14 kts 283°
2026-04-30 22:36 45.63332 8.72090 736 ft 18 kts 258°
2026-04-30 22:36 45.63310 8.71989 735 ft 9 kts 230°
2026-04-30 22:37 45.62961 8.72056 736 ft 21 kts 169°
2026-04-30 22:37 45.62819 8.72095 736 ft 20 kts 169°
2026-04-30 22:37 45.62681 8.72051 736 ft 10 kts 255°
2026-04-30 22:38 45.62651 8.71861 734 ft 10 kts 238°
2026-04-30 22:38 45.62533 8.71861 735 ft 5 kts 182°
2026-04-30 22:39 45.62514 8.71819 735 ft 6 kts 261°
2026-04-30 22:39 45.62507 8.71759 735 ft 0 kts 259°